GFA508 OBBI-OMDB

Flight info

Callsign GFA508
Flight time 0h 53m
Altitude 25000
Route DCT BHR N697 SODAK P559 VUTEB VUTEB4C
Aircraft A320/M-SDE3FGHIRWY/LB1

Departure

Time 2026-04-25 19:36
Airport Bahrain International Airport (OBBI)

Arrival

Time 2026-04-25 20:29
Airport Dubai International Airport (OMDB)
Time Latitude Longitude Altitude Speed Heading
2026-04-25 19:18 26.26755 50.63138 21 ft 0 kts 213°
2026-04-25 19:27 26.26762 50.63143 21 ft 2 kts 209°
2026-04-25 19:28 26.26776 50.63153 22 ft 2 kts 212°
2026-04-25 19:28 26.26790 50.63162 23 ft 2 kts 212°
2026-04-25 19:28 26.26804 50.63172 22 ft 2 kts 212°
2026-04-25 19:28 26.26818 50.63182 23 ft 2 kts 212°
2026-04-25 19:29 26.26832 50.63192 22 ft 2 kts 198°
2026-04-25 19:29 26.26848 50.63193 22 ft 2 kts 153°
2026-04-25 19:29 26.26861 50.63183 22 ft 2 kts 131°
2026-04-25 19:29 26.26868 50.63175 24 ft 0 kts 122°
2026-04-25 19:30 26.26868 50.63174 24 ft 0 kts 122°
2026-04-25 19:31 26.26848 50.63209 24 ft 11 kts 122°
2026-04-25 19:32 26.26808 50.63281 23 ft 10 kts 122°
2026-04-25 19:32 26.26790 50.63350 21 ft 9 kts 65°
2026-04-25 19:32 26.26837 50.63396 21 ft 9 kts 44°
2026-04-25 19:32 26.26834 50.63438 19 ft 9 kts 118°
2026-04-25 19:33 26.26792 50.63510 20 ft 10 kts 123°
2026-04-25 19:33 26.26740 50.63601 20 ft 18 kts 123°
2026-04-25 19:33 26.26660 50.63741 22 ft 25 kts 122°
2026-04-25 19:33 26.26555 50.63917 22 ft 28 kts 122°
2026-04-25 19:34 26.26445 50.64111 21 ft 31 kts 122°
2026-04-25 19:34 26.26334 50.64302 19 ft 28 kts 124°
2026-04-25 19:34 26.26218 50.64486 19 ft 30 kts 126°
2026-04-25 19:34 26.26114 50.64692 20 ft 31 kts 123°
2026-04-25 19:35 26.26019 50.64868 23 ft 26 kts 102°
2026-04-25 19:35 26.26125 50.65003 18 ft 24 kts 357°
2026-04-25 19:35 26.26210 50.64880 17 ft 21 kts 304°
2026-04-25 19:35 26.26323 50.64683 16 ft 58 kts 302°
2026-04-25 19:36 26.26677 50.64070 18 ft 126 kts 302°
2026-04-25 19:36 26.27253 50.63076 63 ft 173 kts 303°
2026-04-25 19:36 26.27918 50.62030 910 ft 160 kts 321°
2026-04-25 19:36 26.28869 50.61441 1663 ft 158 kts 344°
2026-04-25 19:37 26.29974 50.61068 2081 ft 176 kts 349°
2026-04-25 19:37 26.31249 50.61086 2379 ft 196 kts 21°
2026-04-25 19:37 26.32416 50.62007 2646 ft 218 kts 43°
2026-04-25 19:37 26.33593 50.63231 3013 ft 244 kts 43°
2026-04-25 19:38 26.34867 50.64563 3586 ft 262 kts 43°
2026-04-25 19:38 26.36225 50.65984 3920 ft 270 kts 43°
2026-04-25 19:38 26.37613 50.67431 4561 ft 274 kts 43°
2026-04-25 19:38 26.39023 50.68896 5441 ft 280 kts 43°
2026-04-25 19:39 26.40467 50.70394 6311 ft 286 kts 43°
2026-04-25 19:39 26.41934 50.71917 7146 ft 290 kts 42°
2026-04-25 19:39 26.43427 50.73467 7998 ft 295 kts 42°
2026-04-25 19:39 26.44930 50.75027 8831 ft 300 kts 41°
2026-04-25 19:40 26.46474 50.76628 9698 ft 305 kts 41°
2026-04-25 19:40 26.48061 50.78274 10279 ft 321 kts 41°
2026-04-25 19:40 26.49759 50.80037 10570 ft 345 kts 41°
2026-04-25 19:40 26.51577 50.81926 10857 ft 366 kts 41°
2026-04-25 19:41 26.53464 50.83896 11445 ft 375 kts 41°
2026-04-25 19:41 26.55385 50.85908 12180 ft 380 kts 41°
2026-04-25 19:41 26.57327 50.87940 12929 ft 384 kts 41°
2026-04-25 19:41 26.57966 50.88608 13178 ft 385 kts 41°
2026-04-25 19:42 26.61260 50.92046 14347 ft 393 kts 41°
2026-04-25 19:42 26.63269 50.94145 14996 ft 397 kts 41°
2026-04-25 19:42 26.65300 50.96269 15633 ft 402 kts 41°
2026-04-25 19:42 26.67355 50.98417 16252 ft 407 kts 41°
2026-04-25 19:43 26.69435 51.00593 16877 ft 411 kts 41°
2026-04-25 19:43 26.71512 51.02821 17482 ft 417 kts 45°
2026-04-25 19:43 26.73255 51.05401 18045 ft 424 kts 58°
2026-04-25 19:43 26.74516 51.08410 18574 ft 430 kts 71°
2026-04-25 19:44 26.75192 51.11697 19048 ft 435 kts 84°
2026-04-25 19:44 26.75233 51.15086 19529 ft 438 kts 97°
2026-04-25 19:44 26.74638 51.18431 20017 ft 439 kts 110°
2026-04-25 19:44 26.73620 51.21673 20515 ft 443 kts 112°
2026-04-25 19:45 26.72585 51.24898 20996 ft 446 kts 113°
2026-04-25 19:45 26.71525 51.28187 21489 ft 450 kts 113°
2026-04-25 19:45 26.70455 51.31503 21973 ft 454 kts 113°
2026-04-25 19:45 26.69377 51.34837 22450 ft 458 kts 113°
2026-04-25 19:46 26.68288 51.38202 22927 ft 462 kts 113°
2026-04-25 19:46 26.67186 51.41604 23392 ft 466 kts 113°
2026-04-25 19:46 26.66078 51.45026 23803 ft 469 kts 113°
2026-04-25 19:46 26.64980 51.48430 24201 ft 471 kts 113°
2026-04-25 19:47 26.63870 51.51893 24609 ft 474 kts 113°
2026-04-25 19:47 26.62758 51.55367 24884 ft 476 kts 113°
2026-04-25 19:47 26.61634 51.58871 24961 ft 481 kts 113°
2026-04-25 19:47 26.60506 51.62379 24974 ft 486 kts 113°
2026-04-25 19:48 26.59358 51.65947 24971 ft 488 kts 113°
2026-04-25 19:48 26.58205 51.69520 24974 ft 488 kts 113°
2026-04-25 19:48 26.57053 51.73082 24969 ft 488 kts 114°
2026-04-25 19:48 26.55900 51.76649 24970 ft 488 kts 113°
2026-04-25 19:49 26.54747 51.80218 24967 ft 488 kts 114°
2026-04-25 19:49 26.54373 51.81376 24966 ft 488 kts 114°
2026-04-25 19:49 26.52437 51.87353 24966 ft 488 kts 114°
2026-04-25 19:49 26.51285 51.90866 24966 ft 487 kts 114°
2026-04-25 19:50 26.48915 51.97972 24966 ft 487 kts 114°
2026-04-25 19:50 26.47728 52.01515 24964 ft 487 kts 114°
2026-04-25 19:50 26.46539 52.05069 24966 ft 487 kts 114°
2026-04-25 19:51 26.45353 52.08625 24967 ft 487 kts 114°
2026-04-25 19:51 26.44187 52.12123 24967 ft 487 kts 114°
2026-04-25 19:51 26.43003 52.15669 24969 ft 487 kts 114°
2026-04-25 19:51 26.41819 52.19211 24970 ft 486 kts 114°
2026-04-25 19:52 26.40632 52.22759 24968 ft 486 kts 114°
2026-04-25 19:52 26.39449 52.26290 24969 ft 486 kts 114°
2026-04-25 19:52 26.38264 52.29822 24966 ft 486 kts 114°
2026-04-25 19:52 26.37079 52.33353 24964 ft 486 kts 114°
2026-04-25 19:53 26.35907 52.36848 24964 ft 485 kts 114°
2026-04-25 19:53 26.34703 52.40373 24962 ft 485 kts 115°
2026-04-25 19:53 26.33427 52.43859 24961 ft 484 kts 117°
2026-04-25 19:53 26.32097 52.47304 24958 ft 483 kts 117°
2026-04-25 19:54 26.30736 52.50731 24957 ft 483 kts 118°
2026-04-25 19:54 26.29370 52.54153 24956 ft 483 kts 118°
2026-04-25 19:54 26.28030 52.57542 24957 ft 483 kts 117°
2026-04-25 19:54 26.27578 52.58697 24953 ft 483 kts 117°
2026-04-25 19:55 26.25363 52.64421 24953 ft 483 kts 117°
2026-04-25 19:55 26.24043 52.67867 24954 ft 483 kts 117°
2026-04-25 19:55 26.22727 52.71319 24954 ft 483 kts 116°
2026-04-25 19:55 26.21414 52.74772 24951 ft 483 kts 116°
2026-04-25 19:56 26.20117 52.78180 24951 ft 483 kts 116°
2026-04-25 19:56 26.18806 52.81616 24950 ft 483 kts 117°
2026-04-25 19:56 26.17483 52.85069 24945 ft 483 kts 117°
2026-04-25 19:56 26.16165 52.88499 24947 ft 482 kts 117°
2026-04-25 19:57 26.14839 52.91945 24948 ft 482 kts 117°
2026-04-25 19:57 26.13517 52.95373 24947 ft 482 kts 117°
2026-04-25 19:57 26.12193 52.98809 24946 ft 482 kts 116°
2026-04-25 19:57 26.10873 53.02240 24938 ft 482 kts 116°
2026-04-25 19:58 26.09571 53.05638 24940 ft 482 kts 116°
2026-04-25 19:58 26.08282 53.09088 24939 ft 483 kts 116°
2026-04-25 19:58 26.07016 53.12544 24935 ft 483 kts 115°
2026-04-25 19:58 26.05762 53.16007 24938 ft 483 kts 115°
2026-04-25 19:59 26.04508 53.19479 24937 ft 483 kts 115°
2026-04-25 19:59 26.03249 53.22942 24938 ft 483 kts 115°
2026-04-25 19:59 26.01980 53.26399 24930 ft 483 kts 115°
2026-04-25 19:59 26.00703 53.29855 24930 ft 483 kts 115°
2026-04-25 20:00 25.99418 53.33315 24924 ft 483 kts 115°
2026-04-25 20:00 25.99002 53.34434 24923 ft 483 kts 115°
2026-04-25 20:00 25.96867 53.40181 24921 ft 483 kts 115°
2026-04-25 20:00 25.95589 53.43633 24927 ft 483 kts 115°
2026-04-25 20:01 25.93028 53.50560 24923 ft 484 kts 115°
2026-04-25 20:01 25.92199 53.52864 24917 ft 484 kts 115°
2026-04-25 20:01 25.90982 53.56356 24913 ft 485 kts 114°
2026-04-25 20:02 25.89403 53.61014 24912 ft 485 kts 114°
2026-04-25 20:02 25.88602 53.63387 24915 ft 485 kts 114°
2026-04-25 20:02 25.87427 53.66857 24918 ft 485 kts 114°
2026-04-25 20:02 25.86233 53.70364 24915 ft 486 kts 114°
2026-04-25 20:03 25.85029 53.73870 24913 ft 486 kts 114°
2026-04-25 20:03 25.83817 53.77370 24908 ft 486 kts 114°
2026-04-25 20:03 25.82593 53.80886 24673 ft 487 kts 114°
2026-04-25 20:03 25.81365 53.84403 24376 ft 488 kts 114°
2026-04-25 20:04 25.80132 53.87920 24080 ft 489 kts 114°
2026-04-25 20:04 25.78902 53.91432 23798 ft 487 kts 114°
2026-04-25 20:04 25.77678 53.94934 23511 ft 486 kts 114°
2026-04-25 20:04 25.76476 53.98383 23177 ft 484 kts 114°
2026-04-25 20:05 25.75286 54.01864 22734 ft 480 kts 111°
2026-04-25 20:05 25.74514 54.05478 22143 ft 481 kts 103°
2026-04-25 20:05 25.73907 54.09114 21486 ft 477 kts 102°
2026-04-25 20:05 25.73324 54.12714 20842 ft 471 kts 102°
2026-04-25 20:06 25.72757 54.16274 20222 ft 465 kts 102°
2026-04-25 20:06 25.72200 54.19783 19609 ft 459 kts 102°
2026-04-25 20:06 25.71648 54.23245 19010 ft 453 kts 102°
2026-04-25 20:06 25.71098 54.26663 18417 ft 447 kts 102°
2026-04-25 20:07 25.70558 54.29994 17791 ft 441 kts 102°
2026-04-25 20:07 25.70015 54.33323 17133 ft 436 kts 102°
2026-04-25 20:07 25.69475 54.36616 16478 ft 432 kts 102°
2026-04-25 20:07 25.68938 54.39879 15842 ft 428 kts 102°
2026-04-25 20:08 25.68406 54.43108 15224 ft 424 kts 102°
2026-04-25 20:08 25.67880 54.46303 14614 ft 420 kts 102°
2026-04-25 20:08 25.67359 54.49476 14012 ft 416 kts 102°
2026-04-25 20:08 25.66842 54.52620 13389 ft 413 kts 102°
2026-04-25 20:09 25.66336 54.55698 12744 ft 409 kts 102°
2026-04-25 20:09 25.65828 54.58783 12102 ft 405 kts 102°
2026-04-25 20:09 25.65325 54.61840 11470 ft 400 kts 101°
2026-04-25 20:09 25.64830 54.64864 10821 ft 397 kts 101°
2026-04-25 20:10 25.64337 54.67856 10250 ft 392 kts 101°
2026-04-25 20:10 25.63861 54.70731 10044 ft 371 kts 101°
2026-04-25 20:10 25.63402 54.73481 9986 ft 357 kts 101°
2026-04-25 20:10 25.62951 54.76181 10000 ft 355 kts 101°
2026-04-25 20:11 25.62502 54.78873 9998 ft 354 kts 101°
2026-04-25 20:11 25.62055 54.81553 10001 ft 354 kts 101°
2026-04-25 20:11 25.61604 54.84244 9969 ft 355 kts 101°
2026-04-25 20:11 25.61054 54.86813 9858 ft 328 kts 111°
2026-04-25 20:12 25.60201 54.89042 9743 ft 304 kts 114°
2026-04-25 20:12 25.59376 54.91156 9607 ft 294 kts 114°
2026-04-25 20:12 25.58549 54.93277 8859 ft 307 kts 114°
2026-04-25 20:12 25.57979 54.94736 8697 ft 315 kts 114°
2026-04-25 20:13 25.56837 54.97665 8532 ft 310 kts 114°
2026-04-25 20:13 25.55984 54.99857 8408 ft 309 kts 113°
2026-04-25 20:13 25.55135 55.02043 8285 ft 308 kts 113°
2026-04-25 20:13 25.54204 55.04170 8007 ft 304 kts 120°
2026-04-25 20:14 25.53134 55.06197 7991 ft 306 kts 120°
2026-04-25 20:14 25.52083 55.08219 7993 ft 306 kts 120°
2026-04-25 20:14 25.51027 55.10266 7998 ft 306 kts 120°
2026-04-25 20:14 25.49972 55.12314 7996 ft 306 kts 120°
2026-04-25 20:15 25.48914 55.14363 7998 ft 306 kts 120°
2026-04-25 20:15 25.47857 55.16406 8002 ft 306 kts 120°
2026-04-25 20:15 25.46795 55.18452 8002 ft 305 kts 120°
2026-04-25 20:15 25.45625 55.20405 7997 ft 305 kts 131°
2026-04-25 20:16 25.44205 55.22157 8001 ft 305 kts 132°
2026-04-25 20:16 25.42798 55.23882 8002 ft 305 kts 132°
2026-04-25 20:16 25.41373 55.25625 8002 ft 305 kts 132°
2026-04-25 20:16 25.39946 55.27370 8001 ft 305 kts 132°
2026-04-25 20:17 25.38526 55.29112 8006 ft 305 kts 132°
2026-04-25 20:17 25.37104 55.30857 8007 ft 304 kts 132°
2026-04-25 20:17 25.35624 55.32532 8004 ft 304 kts 142°
2026-04-25 20:17 25.33838 55.33722 8006 ft 303 kts 152°
2026-04-25 20:18 25.31989 55.34810 7801 ft 295 kts 152°
2026-04-25 20:18 25.30215 55.35850 7680 ft 283 kts 152°
2026-04-25 20:18 25.28511 55.36848 7558 ft 269 kts 152°
2026-04-25 20:18 25.26861 55.37815 7091 ft 269 kts 152°
2026-04-25 20:19 25.25207 55.38782 6621 ft 269 kts 152°
2026-04-25 20:19 25.23569 55.39737 6169 ft 268 kts 152°
2026-04-25 20:19 25.21920 55.40699 6005 ft 268 kts 152°
2026-04-25 20:19 25.20266 55.41665 6004 ft 269 kts 152°
2026-04-25 20:20 25.18617 55.42628 5943 ft 263 kts 152°
2026-04-25 20:20 25.17057 55.43539 5813 ft 243 kts 152°
2026-04-25 20:20 25.15610 55.44386 5522 ft 235 kts 152°
2026-04-25 20:20 25.14173 55.45228 5113 ft 232 kts 152°
2026-04-25 20:21 25.12747 55.46062 4695 ft 231 kts 152°
2026-04-25 20:21 25.11414 55.47041 4251 ft 229 kts 136°
2026-04-25 20:21 25.10401 55.48380 3828 ft 226 kts 120°
2026-04-25 20:21 25.09591 55.49857 3397 ft 225 kts 120°
2026-04-25 20:22 25.08785 55.51306 3061 ft 221 kts 120°
2026-04-25 20:22 25.08511 55.51794 3035 ft 221 kts 120°
2026-04-25 20:22 25.07157 55.54225 3027 ft 225 kts 115°
2026-04-25 20:22 25.06833 55.55865 3027 ft 216 kts 80°
2026-04-25 20:23 25.07375 55.57291 3038 ft 197 kts 42°
2026-04-25 20:23 25.08531 55.57943 3362 ft 186 kts
2026-04-25 20:23 25.09625 55.57569 4367 ft 149 kts 314°
2026-04-25 20:23 25.10086 55.56683 5165 ft 136 kts 302°
2026-04-25 20:24 25.10943 55.55950 5031 ft 174 kts 340°
2026-04-25 20:24 25.12119 55.55395 5019 ft 188 kts 332°
2026-04-25 20:24 25.13285 55.54703 4814 ft 192 kts 332°
2026-04-25 20:24 25.14509 55.53974 4012 ft 206 kts 332°
2026-04-25 20:25 25.15698 55.53115 3402 ft 207 kts 318°
2026-04-25 20:25 25.16628 55.51912 2816 ft 205 kts 306°
2026-04-25 20:25 25.17403 55.50610 2356 ft 199 kts 304°
2026-04-25 20:25 25.18107 55.49357 2051 ft 183 kts 303°
2026-04-25 20:26 25.18725 55.48244 1843 ft 157 kts 304°
2026-04-25 20:26 25.19265 55.47272 1634 ft 141 kts 304°
2026-04-25 20:26 25.19764 55.46377 1451 ft 134 kts 304°
2026-04-25 20:26 25.20249 55.45505 1284 ft 132 kts 304°
2026-04-25 20:27 25.20723 55.44653 1112 ft 132 kts 303°
2026-04-25 20:27 25.21204 55.43788 951 ft 132 kts 303°
2026-04-25 20:27 25.21686 55.42921 790 ft 133 kts 302°
2026-04-25 20:27 25.22173 55.42045 628 ft 134 kts 302°
2026-04-25 20:28 25.22657 55.41173 459 ft 134 kts 301°
2026-04-25 20:28 25.23144 55.40294 271 ft 133 kts 302°
2026-04-25 20:28 25.23630 55.39414 82 ft 134 kts 301°
2026-04-25 20:28 25.24088 55.38595 19 ft 103 kts 301°
2026-04-25 20:29 25.24357 55.38107 13 ft 66 kts 301°
2026-04-25 20:29 25.24572 55.37716 12 ft 54 kts 301°
2026-04-25 20:29 25.24736 55.37417 10 ft 36 kts 296°
2026-04-25 20:29 25.24785 55.37150 10 ft 36 kts 271°
2026-04-25 20:30 25.24833 55.36886 10 ft 36 kts 297°
2026-04-25 20:30 25.24908 55.36630 9 ft 36 kts 299°
2026-04-25 20:30 25.25039 55.36395 12 ft 36 kts 301°
2026-04-25 20:30 25.25171 55.36155 9 ft 37 kts 301°
2026-04-25 20:31 25.25304 55.35914 10 ft 37 kts 302°
2026-04-25 20:31 25.25441 55.35666 8 ft 38 kts 301°
2026-04-25 20:31 25.25578 55.35421 10 ft 38 kts 302°
2026-04-25 20:31 25.25716 55.35174 12 ft 38 kts 301°
2026-04-25 20:32 25.25772 55.35043 10 ft 16 kts 258°
2026-04-25 20:32 25.25728 55.35012 10 ft 4 kts 221°
2026-04-25 20:32 25.25732 55.34951 10 ft 10 kts 329°
2026-04-25 20:32 25.25770 55.34894 10 ft 9 kts 298°
2026-04-25 20:33 25.25799 55.34831 10 ft 10 kts 297°
2026-04-25 20:33 25.25774 55.34780 10 ft 9 kts 208°
2026-04-25 20:33 25.25728 55.34752 10 ft 0 kts 211°